Terminal Aerodrome Forecast
Issued by NWS

Home | Current Version | Previous Version | Text Only | Print | Product List | Glossary On
Versions: 1 2 3 4 5 6 7 8 9 10 11 12 13 14 15 16 17 18
000
FTUS43 KICT 310500
TAFCNU
TAF
KCNU 310520Z 3106/0106 01004KT 1SM BR SCT060
      TEMPO 3106/3110 1/2SM FG
     FM311400 07006KT P6SM SCT035=

USA.gov is the U.S. government's official web portal to all federal, state and local government web resources and services.